Вернуться в каталог

SL-12 DEB

LostHEO
NORAD 42975·DEBRIS·🇷🇺 Russia

Запущен Sep 2, 2010 с Baikonur Cosmodrome

Loading…

Ближайшие Пролёты (ближайшие 24 часа)

TLE

УстаревшееSource: Space-Track

Эпоха: Feb 22, 2019, 00:47 UTC

1 42975U 10041Q   19053.03315828  .00192832  00000-0  11254+0 0  9998
2 42975  65.4655 343.4584 5716990  58.2939 345.0912  4.39356176 22893

Отслеживайте SL-12 DEB в реальном времени с AllMySat

Download on the App Store